Springfield, SD (57062)

6:15 AM CST on February 10, 2016 (GMT -0600)
Hajek Farms | | Change Station
CLOSE
Current Station
Personal Weather Station
Location: Tyndall, SD
Elevation: 1378 ft
Nearby Weather Stations

Elev 1378 ft 42.97 °N, 97.92 °W | Updated 12 minutes ago

Overcast
Overcast
24.1 °F
Feels Like 24 °F
N
3.0
Wind Variable Wind from East
Gusts 8.0 mph

Today
High -- | Low -- °F
--% Chance of Precip.
Yesterday
High -- | Low -- °F
Precip. -- in
Pressure 29.97 in
Visibility 10.0 miles
Clouds Overcast 6500 ft
Windchill 24 °F
Dew Point 19 °F
Humidity 82%
Rainfall 0.00 in
Snow Depth Not available.
7:36 AM 5:56 PM
Waxing Crescent, 5% visible
METAR KYKN 101155Z AUTO 11009KT 10SM OVC065 M06/M08 A2997 RMK AO1 11050 21060 57027
Pressure 29.97 in
Visibility 10.0 miles
Clouds Overcast 6500 ft
Windchill 24 °F
Dew Point 19 °F
Humidity 82%
Rainfall 0.00 in
Snow Depth Not available.
7:36 AM 5:56 PM
Waxing Crescent, 5% visible
METAR KYKN 101155Z AUTO 11009KT 10SM OVC065 M06/M08 A2997 RMK AO1 11050 21060 57027

10-Day Weather Forecast

Almanac

Astronomy

Feb. 10, 2016 Rise Set
Actual Time
Civil Twilight
Nautical Twilight
Astronomical Twilight
Moon
Length of Visible Light
Length of Day
Tomorrow will be .
, % of the Moon is Illuminated

Today's Extremes

State Highs State Lows

Community

WunderPhotos

Upload Photos

1,891,834 photos uploaded!

WunderBlog® & News

Nearby

Air Quality

  Air Quality AQ Index Pollutant
Not available.

Snow Depth

Station Depth Elevation

Earthquake Activity

City Distance Mag. Time & Date
Minimum magnitude displayed is 2.5.

Coastal Water Temperatures

Place Temperature

Stations

Nearby Weather Stations

Station Location Temp. Windchill Dew Point Humidity Wind Precip. Elev Updated Type
                   

Watches & Warnings

There are currently no watches in effect.